Track STARLINK-2604 now! 10-day predictions STARLINK-2604 is classified as:
1 48374U 21038X 22181.51412465 .00000442 00000-0 48572-4 0 9992 2 48374 53.0550 283.8064 0001275 72.8390 287.2738 15.06382281 63968